ZIYUAN 3-1 (ZY 3-1)

Last updated on Wed Jul 09 2025 00:02:28 GMT+0000 (Coordinated Universal Time)

1 38046U 12001A 25189.46020707 .00016194 00000+0 25354-3 0 9998 2 38046 97.1978 254.1770 0004142 156.5591 203.5853 15.53806369750467
UTC large
Height (km)
Speed (km/s)
/
Latitude / Longitude
Inclination (degrees)
Orbital Period (minutes)
Azimuth
Elevation
Range (km)
Doppler Factor

Next 0 passes for location: London (51.5072 / 0.1276)

Sorry there are no passes over London.